Weather History for LGSR - November, 2012

Change the Weather History Date:

Tuesday, November 20, 2012

  Actual Average Record
Temperature  
Mean Temperature 75 °F -  
Max Temperature 86 °F 63 °F 86 °F (2012)
Min Temperature 59 °F 55 °F 50 °F (2005)
Cooling Degree Days 10    
Growing Degree Days 25 (Base 50)    
Moisture  
Dew Point 58 °F    
Average Humidity 70    
Maximum Humidity 88    
Minimum Humidity 40    
Precipitation  
Precipitation 0.00 in - - ()
Sea Level Pressure  
Sea Level Pressure 29.99 in    
Wind  
Wind Speed 8 mph ()    
Max Wind Speed 18 mph    
Max Gust Speed -    
Visibility 6.0 miles    
Events Rain , Thunderstorm    
Averages and records for this station are not official NWS values.
T = Trace of Precipitation, MM = Missing Value Source: Averaged Metar Reports

Daily Weather History Graph

Daily Weather History Graph

Search for Another Location

Airport or City:

Trip Planner

Search our weather history database for the weather conditions in past years. The results will help you decide how hot, cold, wet, or windy it might be!

Date:

Astronomy

Nov. 20, 2012 Rise Set
Actual Time 7:00 AM EET 5:06 PM EET
Civil Twilight 6:32 AM EET 5:34 PM EET
Nautical Twilight 6:01 AM EET 6:05 PM EET
Astronomical Twilight 5:30 AM EET 6:36 PM EET
Moon 12:30 PM EET (11/20) No Moon Set
Length of Visible Light 11h 01m
Length of Day
10h 05m
Waxing Crescent, 48% of the Moon is Illuminated
Nov 20
Waxing Crescent
Nov 20
First Quarter
Nov 28
Full
Dec 6
Last Quarter
Dec 13
New

Hourly Weather History & Observations

Time (EET) Temp. Heat Index Dew Point Humidity Pressure Visibility Wind Dir Wind Speed Gust Speed Precip Events Conditions
6:50 AM 68.0 °F - 57.2 °F 68% 29.98 in 6.2 mi South 6.9 mph - N/A   Mostly Cloudy
7:20 AM 68.0 °F - 57.2 °F 68% 29.98 in 6.2 mi South 6.9 mph - N/A   Mostly Cloudy
7:50 AM 64.4 °F - 57.2 °F 77% 30.01 in 6.2 mi West 9.2 mph - N/A   Mostly Cloudy
8:20 AM 64.4 °F - 57.2 °F 77% 30.01 in 6.2 mi West 9.2 mph - N/A   Mostly Cloudy
8:50 AM 64.4 °F - 57.2 °F 77% 30.01 in 6.2 mi NNW 11.5 mph - N/A   Mostly Cloudy
9:20 AM 64.4 °F - 57.2 °F 77% 30.01 in 6.2 mi NNW 11.5 mph - N/A   Mostly Cloudy
9:50 AM 66.2 °F - 55.4 °F 68% 30.01 in 6.2 mi North 11.5 mph - N/A   Mostly Cloudy
10:20 AM 64.4 °F - 59.0 °F 83% 30.04 in 6.2 mi North 10.4 mph - N/A Rain Light Rain
10:50 AM 66.2 °F - 59.0 °F 78% 29.98 in 6.2 mi ENE 9.2 mph - N/A   Mostly Cloudy
11:20 AM 68.0 °F - 59.0 °F 73% 29.98 in 6.2 mi East 9.2 mph - N/A   Mostly Cloudy
11:50 AM 68.0 °F - 57.2 °F 68% 29.98 in 6.2 mi ENE 11.5 mph - N/A   Scattered Clouds
12:20 PM 68.0 °F - 57.2 °F 68% 29.98 in 6.2 mi ENE 11.5 mph - N/A   Scattered Clouds
12:50 PM 86.0 °F 85.4 °F 59.0 °F 40% 29.98 in 6.2 mi East 9.2 mph - N/A   Scattered Clouds
1:20 PM 69.8 °F - 59.0 °F 68% 29.98 in 6.2 mi ESE 5.8 mph - N/A   Scattered Clouds
1:50 PM 69.8 °F - 59.0 °F 68% 29.98 in 6.2 mi ESE 5.8 mph - N/A   Scattered Clouds
2:20 PM 69.8 °F - 59.0 °F 68% 29.98 in 6.2 mi East 5.8 mph - N/A   Scattered Clouds
2:50 PM 69.8 °F - 59.0 °F 68% 29.98 in 6.2 mi ESE 6.9 mph - N/A   Scattered Clouds
3:20 PM 69.8 °F - 59.0 °F 68% 29.95 in 6.2 mi ESE 6.9 mph - N/A   Scattered Clouds
3:50 PM 68.0 °F - 59.0 °F 73% 29.95 in 6.2 mi East 5.8 mph - N/A   Scattered Clouds
4:20 PM 86.0 °F 85.4 °F 59.0 °F 40% 29.98 in 6.2 mi ESE 4.6 mph - N/A   Scattered Clouds
4:50 PM 68.0 °F - 59.0 °F 73% 29.98 in 6.2 mi East 3.5 mph - N/A   Scattered Clouds
5:20 PM 66.2 °F - 59.0 °F 78% 29.98 in 6.2 mi East 5.8 mph - N/A   Mostly Cloudy
7:50 PM 59.0 °F - 55.4 °F 88% 30.04 in 2.5 mi West 18.4 mph - N/A Rain , Thunderstorm Heavy Thunderstorms and Rain